,,Stat6,,Stat2,,Stat8,,Stat9,,Stat10,,Wind1,,Wind1
time,status,PA1M_AVG,status,PR1M_SUM,status,RH1M_AVG,status,SR1M_AVG,status,TA1M_AVG,status,W1dAve1m,status,W1sAve1m
2009-03-06, 00:00:00,VALID,916.907,VALID,0,VALID,99.3301,VALID,-0.0169808,VALID,19.7577,VALID,295,VALID,0
2009-03-06, 00:01:00,VALID,916.88,VALID,0,VALID,99.1585,VALID,0,VALID,19.7223,VALID,354,VALID,0
2009-03-06, 00:02:01,VALID,916.873,VALID,0,VALID,99.3492,VALID,-0.0169808,VALID,19.732,VALID,16,VALID,0
2009-03-06, 00:03:00,VALID,916.881,VALID,0,VALID,99.4344,VALID,0,VALID,19.7318,VALID,25,VALID,0
2009-03-06, 00:04:01,VALID,916.876,VALID,0,VALID,99.3072,VALID,-0.0169808,VALID,19.7155,VALID,25,VALID,0
2009-03-06, 00:05:00,VALID,916.871,VALID,0,VALID,99.1076,VALID,-0.0339617,VALID,19.6866,VALID,25,VALID,0
2009-03-06, 00:06:00,VALID,916.847,VALID,0,VALID,99.2525,VALID,0,VALID,19.6701,VALID,25,VALID,0
2009-03-06, 00:07:00,VALID,916.841,VALID,0,VALID,99.1445,VALID,-0.0169808,VALID,19.6609,VALID,25,VALID,0
2009-03-06, 00:08:00,VALID,916.842,VALID,0,VALID,99.3416,VALID,-0.0339617,VALID,19.6576,VALID,25,VALID,0
2009-03-06, 00:09:00,VALID,916.833,VALID,0,VALID,99.3975,VALID,-0.0509425,VALID,19.6771,VALID,25,VALID,0
2009-03-06, 00:10:01,VALID,916.812,VALID,0,VALID,98.9817,VALID,-0.0339617,VALID,19.6509,VALID,18,VALID,0
2009-03-06, 00:11:00,VALID,916.811,VALID,0,VALID,98.7197,VALID,-0.0169808,VALID,19.6352,VALID,18,VALID,0
2009-03-06, 00:12:00,VALID,916.781,VALID,0,VALID,98.5672,VALID,-0.0169808,VALID,19.6282,VALID,6,VALID,0
2009-03-06, 00:13:00,VALID,916.78,VALID,0,VALID,98.7897,VALID,0,VALID,19.6546,VALID,315,VALID,0
2009-03-06, 00:14:00,VALID,916.746,VALID,0,VALID,98.8723,VALID,0,VALID,19.6798,VALID,322,VALID,0
2009-03-06, 00:15:00,VALID,916.728,VALID,0,VALID,98.5697,VALID,0,VALID,19.6771,VALID,9,VALID,0.113451
2009-03-06, 00:16:01,VALID,916.716,VALID,0,VALID,98.3052,VALID,-0.0509425,VALID,19.6671,VALID,15,VALID,0
2009-03-06, 00:17:00,VALID,916.698,VALID,0,VALID,98.4057,VALID,-0.0169808,VALID,19.6866,VALID,272,VALID,0.00109012
2009-03-06, 00:18:01,VALID,916.677,VALID,0,VALID,98.3446,VALID,0,VALID,19.6901,VALID,252,VALID,0
2009-03-06, 00:19:00,VALID,916.646,VALID,0,VALID,98.1552,VALID,0,VALID,19.6669,VALID,346,VALID,0
2009-03-06, 00:20:00,VALID,916.627,VALID,0,VALID,98.0763,VALID,0,VALID,19.6798,VALID,29,VALID,0
2009-03-06, 00:21:00,VALID,916.62,VALID,0,VALID,97.8512,VALID,-0.0169808,VALID,19.6963,VALID,22,VALID,0
2009-03-06, 00:22:01,VALID,916.614,VALID,0,VALID,97.9949,VALID,0,VALID,19.7153,VALID,16,VALID,0
2009-03-06, 00:23:00,VALID,916.604,VALID,0,VALID,97.7584,VALID,-0.0169808,VALID,19.6926,VALID,9,VALID,0.0392323
2009-03-06, 00:24:00,VALID,916.607,VALID,0,VALID,97.5995,VALID,0.0169808,VALID,19.6571,VALID,2,VALID,0
2009-03-06, 00:25:00,VALID,916.601,VALID,0,VALID,97.4901,VALID,0.0169808,VALID,19.6182,VALID,2,VALID,0
2009-03-06, 00:26:01,VALID,916.604,VALID,0,VALID,97.471,VALID,-0.0169808,VALID,19.6085,VALID,2,VALID,0
2009-03-06, 00:27:00,VALID,916.58,VALID,0,VALID,97.3006,VALID,0.0169808,VALID,19.6182,VALID,7,VALID,0
2009-03-06, 00:28:01,VALID,916.584,VALID,0,VALID,97.1684,VALID,0,VALID,19.602,VALID,14,VALID,0
2009-03-06, 00:29:00,VALID,916.579,VALID,0,VALID,97.2231,VALID,0,VALID,19.5955,VALID,14,VALID,0
2009-03-06, 00:30:01,VALID,916.591,VALID,0,VALID,97.2485,VALID,0,VALID,19.5825,VALID,14,VALID,0
2009-03-06, 00:31:00,VALID,916.595,VALID,0,VALID,97.2421,VALID,0.0339617,VALID,19.569,VALID,14,VALID,0
2009-03-06, 00:32:00,VALID,916.592,VALID,0,VALID,97.4303,VALID,0,VALID,19.5625,VALID,357,VALID,0
2009-03-06, 00:33:00,VALID,916.616,VALID,0,VALID,98.1005,VALID,0.0339617,VALID,19.6115,VALID,257,VALID,0.130504
2009-03-06, 00:34:01,VALID,916.621,VALID,0,VALID,97.3108,VALID,0,VALID,19.6312,VALID,262,VALID,0.00136719
2009-03-06, 00:35:00,VALID,916.629,VALID,0,VALID,96.6699,VALID,-0.0169808,VALID,19.6539,VALID,280,VALID,0.0139898
2009-03-06, 00:36:00,VALID,916.622,VALID,0,VALID,97.4647,VALID,0.0169808,VALID,19.7644,VALID,307,VALID,0.0335582
2009-03-06, 00:37:00,VALID,916.621,VALID,0,VALID,97.5982,VALID,0,VALID,19.8131,VALID,344,VALID,0
2009-03-06, 00:38:01,VALID,916.624,VALID,0,VALID,97.5422,VALID,-0.0509425,VALID,19.7749,VALID,12,VALID,0
2009-03-06, 00:39:00,VALID,916.635,VALID,0,VALID,97.5766,VALID,-0.101885,VALID,19.704,VALID,322,VALID,0
2009-03-06, 00:40:01,VALID,916.62,VALID,0,VALID,97.794,VALID,-0.101885,VALID,19.6911,VALID,312,VALID,0
2009-03-06, 00:41:00,VALID,916.617,VALID,0,VALID,98.0572,VALID,-0.101885,VALID,19.6878,VALID,312,VALID,0
2009-03-06, 00:42:01,VALID,916.625,VALID,0,VALID,98.0382,VALID,-0.101885,VALID,19.704,VALID,348,VALID,0
2009-03-06, 00:43:01,VALID,916.617,VALID,0,VALID,98.1475,VALID,-0.118866,VALID,19.7013,VALID,359,VALID,0
2009-03-06, 00:44:01,VALID,916.595,VALID,0,VALID,98.1145,VALID,-0.101885,VALID,19.6783,VALID,359,VALID,0
2009-03-06, 00:45:01,VALID,916.583,VALID,0,VALID,98.0458,VALID,-0.118866,VALID,19.6197,VALID,32,VALID,0.223958
2009-03-06, 00:46:01,VALID,916.575,VALID,0,VALID,97.9352,VALID,-0.118866,VALID,19.5518,VALID,36,VALID,0
2009-03-06, 00:47:01,VALID,916.576,VALID,0,VALID,98.0216,VALID,-0.0679233,VALID,19.4931,VALID,37,VALID,0
2009-03-06, 00:48:01,VALID,916.558,VALID,0,VALID,98.0255,VALID,-0.135847,VALID,19.4737,VALID,37,VALID,0
2009-03-06, 00:49:01,VALID,916.574,VALID,0,VALID,97.8652,VALID,-0.101885,VALID,19.4672,VALID,12,VALID,0
2009-03-06, 00:50:01,VALID,916.587,VALID,0,VALID,98.0026,VALID,-0.0679233,VALID,19.4767,VALID,337,VALID,0
2009-03-06, 00:51:01,VALID,916.57,VALID,0,VALID,98.2365,VALID,-0.101885,VALID,19.5158,VALID,318,VALID,0
2009-03-06, 00:52:00,VALID,916.545,VALID,0,VALID,98.0064,VALID,-0.0849042,VALID,19.5353,VALID,360,VALID,0
2009-03-06, 00:53:00,VALID,916.551,VALID,0,VALID,97.8983,VALID,-0.0339617,VALID,19.554,VALID,30,VALID,0
2009-03-06, 00:54:00,VALID,916.561,VALID,0,VALID,97.8525,VALID,0,VALID,19.6057,VALID,29,VALID,0
2009-03-06, 00:55:00,VALID,916.539,VALID,0,VALID,97.4024,VALID,-0.0169808,VALID,19.5922,VALID,24,VALID,0
2009-03-06, 00:56:00,VALID,916.534,VALID,0,VALID,96.9014,VALID,0.0169808,VALID,19.5755,VALID,38,VALID,0
2009-03-06, 00:57:00,VALID,916.529,VALID,0,VALID,96.7627,VALID,-0.0169808,VALID,19.5862,VALID,37,VALID,0
2009-03-06, 00:58:00,VALID,916.544,VALID,0,VALID,96.7081,VALID,0,VALID,19.5825,VALID,35,VALID,0
2009-03-06, 00:59:00,VALID,916.528,VALID,0,VALID,96.4576,VALID,0,VALID,19.582,VALID,19,VALID,0
2009-03-06, 01:00:00,VALID,916.504,VALID,0,VALID,96.3902,VALID,0,VALID,19.5788,VALID,1,VALID,0
2009-03-06, 01:01:00,VALID,916.5,VALID,0,VALID,96.2134,VALID,0.0339617,VALID,19.5855,VALID,48,VALID,0
2009-03-06, 01:02:00,VALID,916.492,VALID,0,VALID,96.071,VALID,0.0169808,VALID,19.5825,VALID,46,VALID,0
2009-03-06, 01:03:00,VALID,916.491,VALID,0,VALID,96.0888,VALID,0,VALID,19.5825,VALID,46,VALID,0
2009-03-06, 01:04:00,VALID,916.485,VALID,0,VALID,96.1765,VALID,0.0169808,VALID,19.5952,VALID,46,VALID,0
2009-03-06, 01:05:00,VALID,916.478,VALID,0,VALID,96.2973,VALID,0,VALID,19.6117,VALID,45,VALID,0
2009-03-06, 01:06:00,VALID,916.452,VALID,0,VALID,96.4983,VALID,0.0509425,VALID,19.6247,VALID,52,VALID,0
2009-03-06, 01:07:00,VALID,916.436,VALID,0,VALID,96.6877,VALID,0,VALID,19.6052,VALID,60,VALID,0
2009-03-06, 01:08:00,VALID,916.423,VALID,0,VALID,96.6483,VALID,0,VALID,19.5663,VALID,346,VALID,0
2009-03-06, 01:09:00,VALID,916.43,VALID,0,VALID,96.7907,VALID,0.0169808,VALID,19.5501,VALID,277,VALID,0
2009-03-06, 01:10:00,VALID,916.429,VALID,0,VALID,96.9357,VALID,0.0339617,VALID,19.563,VALID,277,VALID,0
2009-03-06, 01:11:00,VALID,916.4,VALID,0,VALID,97.0705,VALID,0,VALID,19.5823,VALID,277,VALID,0
2009-03-06, 01:12:00,VALID,916.388,VALID,0,VALID,97.1417,VALID,-0.0339617,VALID,19.6187,VALID,316,VALID,0
2009-03-06, 01:13:00,VALID,916.391,VALID,0,VALID,97.307,VALID,-0.0169808,VALID,19.6407,VALID,39,VALID,0
2009-03-06, 01:14:00,VALID,916.398,VALID,0,VALID,97.1023,VALID,0,VALID,19.6309,VALID,39,VALID,0
2009-03-06, 01:15:00,VALID,916.384,VALID,0,VALID,96.998,VALID,0,VALID,19.611,VALID,39,VALID,0
2009-03-06, 01:16:00,VALID,916.379,VALID,0,VALID,96.9777,VALID,0.0169808,VALID,19.6112,VALID,39,VALID,0
2009-03-06, 01:17:00,VALID,916.376,VALID,0,VALID,96.8632,VALID,0.0339617,VALID,19.5917,VALID,39,VALID,0
2009-03-06, 01:18:00,VALID,916.361,VALID,0,VALID,97.0171,VALID,0,VALID,19.6115,VALID,36,VALID,0
2009-03-06, 01:19:00,VALID,916.349,VALID,0,VALID,96.7424,VALID,0,VALID,19.6052,VALID,15,VALID,0
2009-03-06, 01:20:00,VALID,916.317,VALID,0,VALID,95.8777,VALID,-0.0169808,VALID,19.566,VALID,22,VALID,0
2009-03-06, 01:21:00,VALID,916.296,VALID,0,VALID,95.7048,VALID,0,VALID,19.589,VALID,36,VALID,0
2009-03-06, 01:22:00,VALID,916.302,VALID,0,VALID,95.5357,VALID,0.0169808,VALID,19.592,VALID,42,VALID,0
2009-03-06, 01:23:00,VALID,916.303,VALID,0,VALID,95.4937,VALID,0.0169808,VALID,19.5825,VALID,37,VALID,0
2009-03-06, 01:24:00,VALID,916.293,VALID,0,VALID,95.1593,VALID,0.0169808,VALID,19.5763,VALID,352,VALID,0
2009-03-06, 01:25:00,VALID,916.273,VALID,0,VALID,94.7867,VALID,0,VALID,19.6025,VALID,6,VALID,0.136347
2009-03-06, 01:26:00,VALID,916.268,VALID,0,VALID,94.2373,VALID,0,VALID,19.6506,VALID,11,VALID,0.00486111
2009-03-06, 01:27:00,VALID,916.264,VALID,0,VALID,94.0364,VALID,0,VALID,19.7318,VALID,11,VALID,0
2009-03-06, 01:28:00,VALID,916.265,VALID,0,VALID,94.2119,VALID,0.0169808,VALID,19.7961,VALID,8,VALID,0
2009-03-06, 01:29:00,VALID,916.258,VALID,0,VALID,93.6041,VALID,0,VALID,19.8064,VALID,347,VALID,0
2009-03-06, 01:30:00,VALID,916.254,VALID,0,VALID,93.7071,VALID,-0.0169808,VALID,19.865,VALID,292,VALID,0
2009-03-06, 01:31:00,VALID,916.223,VALID,0,VALID,94.1191,VALID,-0.0169808,VALID,19.9135,VALID,279,VALID,0
2009-03-06, 01:32:00,VALID,916.225,VALID,0,VALID,94.3365,VALID,0,VALID,19.8808,VALID,203,VALID,0
2009-03-06, 01:33:00,VALID,916.224,VALID,0,VALID,94.8477,VALID,0,VALID,19.8521,VALID,235,VALID,0
2009-03-06, 01:34:00,VALID,916.194,VALID,0,VALID,95.191,VALID,-0.0339617,VALID,19.8001,VALID,236,VALID,0
2009-03-06, 01:35:00,VALID,916.197,VALID,0,VALID,95.378,VALID,0,VALID,19.7607,VALID,250,VALID,0
2009-03-06, 01:36:00,VALID,916.19,VALID,0,VALID,94.9825,VALID,-0.0339617,VALID,19.7485,VALID,315,VALID,0.0498512
2009-03-06, 01:37:00,VALID,916.178,VALID,0,VALID,95.3246,VALID,0,VALID,19.7707,VALID,356,VALID,0
2009-03-06, 01:38:00,VALID,916.148,VALID,0,VALID,95.5992,VALID,0,VALID,19.761,VALID,68,VALID,0
2009-03-06, 01:39:00,VALID,916.139,VALID,0,VALID,95.94,VALID,-0.0339617,VALID,19.6863,VALID,68,VALID,0
2009-03-06, 01:40:00,VALID,916.125,VALID,0,VALID,96.324,VALID,0,VALID,19.6344,VALID,32,VALID,0
2009-03-06, 01:41:00,VALID,916.107,VALID,0,VALID,95.8561,VALID,-0.0169808,VALID,19.5565,VALID,21,VALID,0
2009-03-06, 01:42:00,VALID,916.094,VALID,0,VALID,95.8116,VALID,0,VALID,19.5468,VALID,21,VALID,0
2009-03-06, 01:43:00,VALID,916.085,VALID,0,VALID,95.7798,VALID,-0.0169808,VALID,19.5758,VALID,24,VALID,0.201308
2009-03-06, 01:44:00,VALID,916.078,VALID,0,VALID,95.584,VALID,0,VALID,19.563,VALID,36,VALID,0
2009-03-06, 01:45:00,VALID,916.086,VALID,0,VALID,95.6997,VALID,-0.0169808,VALID,19.5598,VALID,28,VALID,0
2009-03-06, 01:46:00,VALID,916.092,VALID,0,VALID,95.3246,VALID,0,VALID,19.5598,VALID,22,VALID,0
2009-03-06, 01:47:00,VALID,916.063,VALID,0,VALID,94.7752,VALID,0,VALID,19.5433,VALID,32,VALID,0
2009-03-06, 01:48:00,VALID,916.048,VALID,0,VALID,94.6087,VALID,0,VALID,19.5663,VALID,44,VALID,0
2009-03-06, 01:49:00,VALID,916.058,VALID,0,VALID,94.8236,VALID,0,VALID,19.5793,VALID,40,VALID,0
2009-03-06, 01:50:00,VALID,916.081,VALID,0,VALID,95.1656,VALID,0,VALID,19.5793,VALID,273,VALID,0
2009-03-06, 01:51:00,VALID,916.077,VALID,0,VALID,96.0456,VALID,0.0169808,VALID,19.5793,VALID,249,VALID,0
2009-03-06, 01:52:00,VALID,916.069,VALID,0,VALID,95.4238,VALID,-0.0169808,VALID,19.5373,VALID,279,VALID,0.03125
2009-03-06, 01:53:00,VALID,916.074,VALID,0,VALID,94.9838,VALID,0,VALID,19.5338,VALID,7,VALID,0.000976563
2009-03-06, 01:54:00,VALID,916.079,VALID,0,VALID,94.5934,VALID,0,VALID,19.576,VALID,350,VALID,0
2009-03-06, 01:55:00,VALID,916.061,VALID,0,VALID,94.2246,VALID,0.0339617,VALID,19.6247,VALID,345,VALID,0
2009-03-06, 01:56:00,VALID,916.059,VALID,0,VALID,94.5489,VALID,0.0169808,VALID,19.6601,VALID,329,VALID,0
2009-03-06, 01:57:00,VALID,916.058,VALID,0,VALID,94.8719,VALID,0,VALID,19.6858,VALID,8,VALID,0
2009-03-06, 01:58:00,VALID,916.045,VALID,0,VALID,95.2152,VALID,-0.0169808,VALID,19.6499,VALID,44,VALID,0
2009-03-06, 01:59:00,VALID,916.037,VALID,0,VALID,95.2877,VALID,0.0169808,VALID,19.592,VALID,40,VALID,0.119141
2009-03-06, 02:00:00,VALID,916.033,VALID,0,VALID,95.3843,VALID,0,VALID,19.5209,VALID,36,VALID,0
2009-03-06, 02:01:00,VALID,916.06,VALID,0,VALID,95.4644,VALID,0,VALID,19.4787,VALID,304,VALID,0.0012429
2009-03-06, 02:02:00,VALID,916.059,VALID,0,VALID,96.3291,VALID,-0.0169808,VALID,19.4787,VALID,264,VALID,0.00130208
2009-03-06, 02:03:00,VALID,916.047,VALID,0,VALID,96.8518,VALID,-0.0169808,VALID,19.4854,VALID,282,VALID,0
2009-03-06, 02:04:00,VALID,916.035,VALID,0,VALID,96.2961,VALID,0,VALID,19.4492,VALID,349,VALID,0
2009-03-06, 02:05:00,VALID,916.016,VALID,0,VALID,96.1613,VALID,0,VALID,19.4822,VALID,36,VALID,0
2009-03-06, 02:06:00,VALID,916.013,VALID,0,VALID,96.0964,VALID,-0.0509425,VALID,19.5176,VALID,43,VALID,0
2009-03-06, 02:07:00,VALID,916.004,VALID,0,VALID,95.9044,VALID,0.0169808,VALID,19.4914,VALID,44,VALID,0
2009-03-06, 02:08:00,VALID,916.01,VALID,0,VALID,95.9553,VALID,0,VALID,19.4652,VALID,44,VALID,0
2009-03-06, 02:09:00,VALID,916.025,VALID,0,VALID,96.0214,VALID,0,VALID,19.4655,VALID,43,VALID,0
2009-03-06, 02:10:00,VALID,916.045,VALID,0,VALID,95.8383,VALID,0.0509425,VALID,19.442,VALID,325,VALID,0.0378196
2009-03-06, 02:11:00,VALID,916.033,VALID,0,VALID,96.6076,VALID,-0.0169808,VALID,19.4819,VALID,249,VALID,0.00508721
2009-03-06, 02:12:00,VALID,916.05,VALID,0,VALID,96.717,VALID,0.0169808,VALID,19.4942,VALID,245,VALID,0
2009-03-06, 02:13:00,VALID,916.04,VALID,0,VALID,96.6356,VALID,0.0169808,VALID,19.4782,VALID,245,VALID,0
2009-03-06, 02:14:00,VALID,916.047,VALID,0,VALID,96.5377,VALID,0.0169808,VALID,19.4722,VALID,245,VALID,0
2009-03-06, 02:15:00,VALID,916.036,VALID,0,VALID,96.8492,VALID,0.0509425,VALID,19.4847,VALID,245,VALID,0
2009-03-06, 02:16:00,VALID,916.046,VALID,0,VALID,96.9942,VALID,0.0169808,VALID,19.4917,VALID,245,VALID,0
2009-03-06, 02:17:00,VALID,916.046,VALID,0,VALID,97.1684,VALID,0.0169808,VALID,19.4687,VALID,245,VALID,0
2009-03-06, 02:18:00,VALID,916.048,VALID,0,VALID,97.1328,VALID,0.0169808,VALID,19.4522,VALID,245,VALID,0
2009-03-06, 02:19:00,VALID,916.048,VALID,0,VALID,97.3146,VALID,0,VALID,19.4395,VALID,245,VALID,0
2009-03-06, 02:20:00,VALID,916.045,VALID,0,VALID,97.5804,VALID,0,VALID,19.4423,VALID,245,VALID,0
2009-03-06, 02:21:00,VALID,916.039,VALID,0,VALID,97.8627,VALID,0,VALID,19.423,VALID,245,VALID,0
2009-03-06, 02:22:00,VALID,916.039,VALID,0,VALID,98.0522,VALID,0.0339617,VALID,19.4105,VALID,245,VALID,0
2009-03-06, 02:23:00,VALID,916.039,VALID,0,VALID,98.2162,VALID,0,VALID,19.3911,VALID,245,VALID,0
2009-03-06, 02:24:00,VALID,916.043,VALID,0,VALID,98.4196,VALID,0.0169808,VALID,19.3676,VALID,276,VALID,0
2009-03-06, 02:25:00,VALID,916.044,VALID,0,VALID,98.6892,VALID,0.0169808,VALID,19.3616,VALID,290,VALID,0.0723586
2009-03-06, 02:26:00,VALID,916.029,VALID,0,VALID,98.8342,VALID,0.0679233,VALID,19.3709,VALID,299,VALID,0
2009-03-06, 02:27:00,VALID,916.017,VALID,0,VALID,98.7019,VALID,0.0339617,VALID,19.3619,VALID,327,VALID,0.0738636
2009-03-06, 02:28:00,VALID,916.021,VALID,0,VALID,98.4807,VALID,0,VALID,19.3357,VALID,1,VALID,0
2009-03-06, 02:29:00,VALID,916.018,VALID,0,VALID,98.5608,VALID,0,VALID,19.3127,VALID,318,VALID,0.0529891
2009-03-06, 02:30:00,VALID,916.006,VALID,0,VALID,98.6498,VALID,0.0339617,VALID,19.3157,VALID,296,VALID,0
2009-03-06, 02:31:00,VALID,915.998,VALID,0,VALID,98.866,VALID,0.0339617,VALID,19.3255,VALID,302,VALID,0
2009-03-06, 02:32:00,VALID,915.988,VALID,0,VALID,99.0733,VALID,0.0339617,VALID,19.3519,VALID,5,VALID,0.0455452
2009-03-06, 02:33:00,VALID,915.977,VALID,0,VALID,98.7681,VALID,0,VALID,19.3097,VALID,27,VALID,0.00285823
2009-03-06, 02:34:00,VALID,915.982,VALID,0,VALID,98.5761,VALID,0.0339617,VALID,19.2414,VALID,17,VALID,0.00118886
2009-03-06, 02:35:00,VALID,915.992,VALID,0,VALID,98.4807,VALID,0.0169808,VALID,19.2316,VALID,11,VALID,0
2009-03-06, 02:36:00,VALID,915.989,VALID,0,VALID,98.9219,VALID,0.0169808,VALID,19.2446,VALID,246,VALID,0
2009-03-06, 02:37:00,VALID,916.001,VALID,0,VALID,99.6073,VALID,0.0509425,VALID,19.2835,VALID,223,VALID,0.090298
2009-03-06, 02:38:00,VALID,916.007,VALID,0,VALID,99.9372,VALID,0,VALID,19.2875,VALID,247,VALID,0.304865
2009-03-06, 02:39:00,VALID,916.01,VALID,0,VALID,100,VALID,0.0339617,VALID,19.2833,VALID,256,VALID,0
2009-03-06, 02:40:00,VALID,916.016,VALID,0,VALID,100,VALID,0.0509425,VALID,19.2603,VALID,283,VALID,0.0436046
2009-03-06, 02:41:00,VALID,916.001,VALID,0,VALID,99.8573,VALID,0.0339617,VALID,19.2319,VALID,20,VALID,0.0305233
2009-03-06, 02:42:00,VALID,916.018,VALID,0,VALID,99.3886,VALID,0.0339617,VALID,19.2087,VALID,21,VALID,0
2009-03-06, 02:43:00,VALID,916.032,VALID,0,VALID,99.47,VALID,0.0169808,VALID,19.2506,VALID,352,VALID,0
2009-03-06, 02:44:00,VALID,916.034,VALID,0,VALID,99.9107,VALID,0.0679233,VALID,19.2895,VALID,257,VALID,0
2009-03-06, 02:45:00,VALID,916.035,VALID,0,VALID,99.6124,VALID,0.0169808,VALID,19.2833,VALID,313,VALID,0
2009-03-06, 02:46:00,VALID,916.028,VALID,0,VALID,99.9626,VALID,0.0509425,VALID,19.2733,VALID,307,VALID,0
2009-03-06, 02:47:00,VALID,916.029,VALID,0,VALID,100,VALID,0.0509425,VALID,19.2868,VALID,299,VALID,0
2009-03-06, 02:48:00,VALID,916.027,VALID,0,VALID,100,VALID,0.0849042,VALID,19.2638,VALID,301,VALID,0
2009-03-06, 02:49:00,VALID,916.017,VALID,0,VALID,100,VALID,0.0679233,VALID,19.2534,VALID,331,VALID,0
2009-03-06, 02:50:00,VALID,916.009,VALID,0,VALID,100,VALID,0.0849042,VALID,19.2631,VALID,358,VALID,0
2009-03-06, 02:51:00,VALID,916.003,VALID,0,VALID,100,VALID,0.0849042,VALID,19.2406,VALID,358,VALID,0
2009-03-06, 02:52:00,VALID,916.012,VALID,0,VALID,100,VALID,0.0169808,VALID,19.2184,VALID,343,VALID,0
2009-03-06, 02:53:00,VALID,916.011,VALID,0,VALID,100,VALID,0,VALID,19.1959,VALID,289,VALID,0
2009-03-06, 02:54:00,VALID,916.021,VALID,0,VALID,100,VALID,0.0169808,VALID,19.1989,VALID,282,VALID,0
2009-03-06, 02:55:00,VALID,916.032,VALID,0,VALID,100,VALID,-0.0169808,VALID,19.192,VALID,282,VALID,0
2009-03-06, 02:56:00,VALID,916.036,VALID,0,VALID,100,VALID,0,VALID,19.1927,VALID,282,VALID,0
2009-03-06, 02:57:00,VALID,916.033,VALID,0,VALID,100,VALID,0,VALID,19.163,VALID,282,VALID,0
2009-03-06, 02:58:00,VALID,916.044,VALID,0,VALID,100,VALID,0,VALID,19.1403,VALID,282,VALID,0
2009-03-06, 02:59:00,VALID,916.058,VALID,0,VALID,100,VALID,0.0169808,VALID,19.1573,VALID,282,VALID,0
2009-03-06, 03:00:00,VALID,916.066,VALID,0,VALID,100,VALID,0.0339617,VALID,19.1635,VALID,282,VALID,0
2009-03-06, 03:01:00,VALID,916.065,VALID,0,VALID,100,VALID,0.0169808,VALID,19.1635,VALID,295,VALID,0
2009-03-06, 03:02:00,VALID,916.07,VALID,0,VALID,100,VALID,-0.0169808,VALID,19.1468,VALID,305,VALID,0
2009-03-06, 03:03:00,VALID,916.075,VALID,0,VALID,100,VALID,0,VALID,19.1368,VALID,308,VALID,0
2009-03-06, 03:04:00,VALID,916.081,VALID,0,VALID,100,VALID,0.0169808,VALID,19.1211,VALID,308,VALID,0
2009-03-06, 03:05:00,VALID,916.086,VALID,0,VALID,100,VALID,0.0169808,VALID,19.1079,VALID,308,VALID,0
2009-03-06, 03:06:00,VALID,916.102,VALID,0,VALID,100,VALID,0.0169808,VALID,19.1051,VALID,308,VALID,0
2009-03-06, 03:07:00,VALID,916.11,VALID,0.2,VALID,100,VALID,0.0169808,VALID,19.1014,VALID,309,VALID,0
2009-03-06, 03:08:00,VALID,916.118,VALID,0,VALID,100,VALID,-0.0509425,VALID,19.1183,VALID,308,VALID,0
2009-03-06, 03:09:00,VALID,916.114,VALID,0,VALID,100,VALID,-0.0679233,VALID,19.0996,VALID,315,VALID,0.137847
2009-03-06, 03:10:00,VALID,916.116,VALID,0,VALID,100,VALID,-0.0339617,VALID,19.0407,VALID,325,VALID,0.00976563
2009-03-06, 03:11:00,VALID,916.127,VALID,0,VALID,100,VALID,-0.0509425,VALID,19.0215,VALID,317,VALID,0
2009-03-06, 03:12:00,VALID,916.134,VALID,0,VALID,100,VALID,-0.101885,VALID,19.0285,VALID,353,VALID,0
2009-03-06, 03:13:00,VALID,916.126,VALID,0,VALID,100,VALID,-0.101885,VALID,19.038,VALID,356,VALID,0
2009-03-06, 03:14:00,VALID,916.119,VALID,0,VALID,100,VALID,-0.118866,VALID,19.0028,VALID,19,VALID,0
2009-03-06, 03:15:00,VALID,916.134,VALID,0,VALID,100,VALID,-0.101885,VALID,18.9506,VALID,329,VALID,0
2009-03-06, 03:16:00,VALID,916.148,VALID,0,VALID,100,VALID,-0.118866,VALID,18.9543,VALID,330,VALID,0
2009-03-06, 03:17:00,VALID,916.158,VALID,0,VALID,100,VALID,-0.101885,VALID,18.9636,INVALID,360,VALID,0
2009-03-06, 03:18:00,VALID,916.152,VALID,0,VALID,100,VALID,-0.0849042,VALID,18.9728,VALID,314,VALID,0
2009-03-06, 03:19:00,VALID,916.169,VALID,0,VALID,100,VALID,-0.101885,VALID,18.9831,VALID,314,VALID,0
2009-03-06, 03:20:00,VALID,916.159,VALID,0,VALID,100,VALID,-0.101885,VALID,18.9661,INVALID,360,VALID,0
2009-03-06, 03:21:00,VALID,916.145,VALID,0,VALID,100,VALID,-0.118866,VALID,18.9571,VALID,329,VALID,0
2009-03-06, 03:22:00,VALID,916.167,VALID,0,VALID,100,VALID,-0.101885,VALID,18.9531,VALID,346,VALID,0
2009-03-06, 03:23:00,VALID,916.16,VALID,0.2,VALID,100,VALID,-0.0169808,VALID,18.9626,VALID,346,VALID,0
2009-03-06, 03:24:00,VALID,916.169,VALID,0,VALID,100,VALID,0,VALID,18.9686,VALID,327,VALID,0
2009-03-06, 03:25:00,VALID,916.165,VALID,0,VALID,100,VALID,0,VALID,18.9589,VALID,325,VALID,0
2009-03-06, 03:26:00,VALID,916.172,VALID,0,VALID,100,VALID,0.0169808,VALID,18.9589,VALID,356,VALID,0
2009-03-06, 03:27:00,VALID,916.164,VALID,0,VALID,100,VALID,0.0169808,VALID,18.9464,VALID,356,VALID,0
2009-03-06, 03:28:00,VALID,916.165,VALID,0,VALID,100,VALID,-0.0169808,VALID,18.9237,VALID,356,VALID,0
2009-03-06, 03:29:00,VALID,916.166,VALID,0,VALID,100,VALID,-0.0169808,VALID,18.8943,VALID,356,VALID,0
2009-03-06, 03:30:00,VALID,916.156,VALID,0,VALID,100,VALID,-0.0169808,VALID,18.9072,VALID,320,VALID,0
2009-03-06, 03:31:00,VALID,916.16,VALID,0,VALID,100,VALID,-0.0169808,VALID,18.875,VALID,271,VALID,0
2009-03-06, 03:32:00,VALID,916.136,VALID,0,VALID,100,VALID,0.0169808,VALID,18.8521,VALID,274,VALID,0
2009-03-06, 03:33:00,VALID,916.133,VALID,0,VALID,100,VALID,0.0169808,VALID,18.8387,VALID,297,VALID,0
2009-03-06, 03:34:00,VALID,916.134,VALID,0,VALID,100,VALID,0,VALID,18.8097,VALID,353,VALID,0
2009-03-06, 03:35:00,VALID,916.138,VALID,0,VALID,100,VALID,0.0169808,VALID,18.8264,VALID,358,VALID,0
2009-03-06, 03:36:00,VALID,916.133,VALID,0,VALID,100,VALID,0.0169808,VALID,18.8389,VALID,356,VALID,0
2009-03-06, 03:37:00,VALID,916.132,VALID,0,VALID,100,VALID,0.0169808,VALID,18.8127,VALID,347,VALID,0
2009-03-06, 03:38:00,VALID,916.137,VALID,0,VALID,100,VALID,-0.0509425,VALID,18.8199,VALID,318,VALID,0
2009-03-06, 03:39:00,VALID,916.142,VALID,0,VALID,100,VALID,-0.0849042,VALID,18.8269,VALID,276,VALID,0.00114329
2009-03-06, 03:40:00,VALID,916.143,VALID,0,VALID,100,VALID,-0.0849042,VALID,18.8368,VALID,283,VALID,0
2009-03-06, 03:41:00,VALID,916.148,VALID,0,VALID,100,VALID,-0.0849042,VALID,18.8371,VALID,294,VALID,0
2009-03-06, 03:42:00,VALID,916.147,VALID,0,VALID,100,VALID,-0.101885,VALID,18.8498,INVALID,360,VALID,0
2009-03-06, 03:43:00,VALID,916.139,VALID,0,VALID,100,VALID,-0.0849042,VALID,18.8528,VALID,316,VALID,0
2009-03-06, 03:44:00,VALID,916.144,VALID,0.2,VALID,100,VALID,-0.0509425,VALID,18.8463,INVALID,360,VALID,0
2009-03-06, 03:45:00,VALID,916.138,VALID,0,VALID,100,VALID,-0.0679233,VALID,18.8401,INVALID,360,VALID,0
2009-03-06, 03:46:00,VALID,916.137,VALID,0,VALID,100,VALID,-0.0849042,VALID,18.8109,VALID,316,VALID,0
2009-03-06, 03:47:00,VALID,916.135,VALID,0,VALID,100,VALID,-0.101885,VALID,18.8209,INVALID,360,VALID,0
2009-03-06, 03:48:00,VALID,916.136,VALID,0,VALID,100,VALID,-0.101885,VALID,18.8306,INVALID,360,VALID,0
2009-03-06, 03:49:00,VALID,916.141,VALID,0,VALID,100,VALID,-0.0849042,VALID,18.8568,INVALID,360,VALID,0
2009-03-06, 03:50:00,VALID,916.138,VALID,0,VALID,100,VALID,-0.118866,VALID,18.8468,VALID,4,VALID,0